Regional Weather Roundup
Issued by NWS

Home | Current Version | Previous Version | Graphics & Text | Print | Product List | Glossary On
Versions: 1 2 3 4 5 6 7 8 9 10 11 12 13 14 15 16 17 18 19 20 21 22 23 24 25 26 27 28 29 30 31 32 33 34 35 36 37 38 39 40 41 42 43 44 45 46 47 48 49 50
000
ASUS45 KSLC 272210
RWRUT

UTAH REGIONAL WEATHER ROUNDUP
NATIONAL WEATHER SERVICE SALT LAKE CITY UT
400 PM MDT MON JUL 27 2015

UTZ001>011-023>025-272300-

NORTHERN UTAH

CITY           SKY/WX    TMP DP  RH WIND       PRES   REMARKS
BRIGHAM CITY   MOSUNNY   70  42  35 SW7       30.06S
HILL AFB       SUNNY     71  43  36 NW10      30.07S
LOGAN            N/A    N/A N/A N/A MISG      30.06F
OGDEN          SUNNY     73  44  35 VRB7      30.05S
PROVO AIRPORT  NOT AVBL
SALT LAKE CITY MOSUNNY   75  42  30 NW15      30.04S
VERNAL         SUNNY     88  27  11 W23G36    29.87F
WENDOVER       SUNNY     79  32  18 W9        30.02F
HEBER CITY     MOSUNNY   79  32  18 SW7G22    30.03S
WEST JORDAN    SUNNY     73  41  31 N18G28    30.06R

$$

UTZ012>022-026-027-272300-

SOUTHERN/CENTRAL UTAH

CITY           SKY/WX    TMP DP  RH WIND       PRES   REMARKS
BLANDING       SUNNY     89  32  13 W17G23    30.11F
BRYCE CANYON   SUNNY     79  24  13 SW18G28   30.19F
CEDAR CITY     SUNNY     88  19   8 S14G24    30.03F
DELTA          SUNNY     82  31  15 N16G24    29.99F
HANKSVILLE     SUNNY     97  27   8 S17G25    29.88F HX  90
MILFORD        SUNNY     90  29  11 S13G30    29.96S
MOAB/CYNLANDS  SUNNY     95  27   9 SW23G32   29.86F
PRICE          SUNNY     87  26  11 W20G33    29.98S
ST GEORGE      CLEAR     97  34  11 NW7G16    29.87F HX  91
KANAB          SUNNY     91  32  12 W14       30.04F

$$

REGIONAL REPORTS     COLORADO/ARIZONA

CITY           SKY/WX    TMP DP  RH WIND       PRES   REMARKS
CRAIG, CO      MOSUNNY   88  35  15 SW26G37   29.95F
GRAND JUNCTION SUNNY     95  30  10 W17G25    29.87F
RIFLE          MOSUNNY   91  34  13 W17G33    29.92F
MONTROSE       MOSUNNY   90  39  16 SW22G29   30.01F
CORTEZ         SUNNY     90  35  14 SW21G28   30.05F
PAGE, AZ       SUNNY     96  26   8 SW8       29.91F HX  90
GRAND CANYON   SUNNY     85  24  11 SW18G28   30.15F
KINGMAN        SUNNY     95  18   6 SW17      29.94F
FLAGSTAFF      MOSUNNY   79  43  27 SW24G30   30.20F

$$

REGIONAL REPORTS    NEVADA/IDAHO/WYOMING

CITY           SKY/WX    TMP DP  RH WIND       PRES   REMARKS
LAS VEGAS, NV  SUNNY    100  23   6 S9        29.77F HX  93
ELY            SUNNY     77  24  14 VRB3      30.13S
ELKO           MOSUNNY   73  33  23 W10G24    30.11F
POCATELLO, ID  MOSUNNY   68  42  38 W28G35    30.04S
BURLEY         LGT RAIN  68  37  32 W24G35    30.04S
EVANSTON, WY   SUNNY     68  33  27 W28G39    30.13R
ROCK SPRINGS   MOSUNNY   72  38  29 W29G41    30.03R
KEMMERER       MOSUNNY   63  34  34 W24G40    30.11F

$$


USA.gov is the U.S. government's official web portal to all federal, state and local government web resources and services.